Погода в Соколином

Россия / Республика Крым     44°33′05″N   33°57′24″E
темп.,
°C
ветер,
м/с
пор.,
м/с
влажн.,
%
обл.,
%
осадки,
мм/ч
давл.,
гПа
погр.,
м
16 июня, ср
ср1600:00+12ююз359553 0.1 1010259
03:00+12ююз239158 0.2 1011100
06:00+12ююз12880 0.0 101167
09:00+17юв22665 0.0 1011734
12:00+19юв226425 1.1 1011811
15:00+20вюв12590 3.1 10101051
18:00+18ссз0166100 1.1 1010498
21:00+14с2293100 1.6 101135
17 июня, чт
чт1700:00+14ссз339099 0.6 101135
03:00+13с4484100 0.6 101152
06:00+14с4487100 0.0 1010108
09:00+17ссз3478100 0.0 1010402
12:00+18сз4874100 0.4 10111028
15:00+14зсз4995100 5.1 1012688
18:00+15зсз498676 0.2 1013754
21:00+14зсз3497100 0.4 1014146
18 июня, пт
пт1800:00+15з3798100 0.8 1014445
03:00+15зюз4899100 5.9 1014509
06:00+14ююз379796 2.3 1014458
09:00+15юв349494 2.7 1015305
12:00+16ююв358792 0.8 1017512
15:00+18ююв357596 1.1 1017777
18:00+18юв347761 0.1 1017622
21:00+16вюв2383100 0.1 101868
19 июня, сб
сб1900:00+15в337466 0.0 101850
03:00+14всв33760 0.0 101842
06:00+15св34730 0.0 101755
09:00+21в33583 0.0 1016763
12:00+25вюв23460 0.0 10161505
15:00+25вюв134849 0.0 10151616
18:00+23св135926 0.0 1015946
21:00+18с22805 0.0 101515
20 июня, вс
вс2000:00+18ссв22810 0.0 101429
03:00+18с22885 0.0 101420
06:00+18ссз118283 0.0 101312
09:00+23ююз11670 0.0 1012535
12:00+26ю12573 0.0 10121070
15:00+26юз115710 0.0 1011899
18:00+24в12666 0.0 1012520
21:00+19с11880 0.0 101314